SWA1672 KFLL-KTPA

Flight info

Callsign SWA1672
Flight time 0h 35m
Altitude 24000
Route BNICE2 COREA BLFRG3
Aircraft B738/M-SDE2E3FGHIRWXY/LB1

Departure

Time 2026-05-05 13:50
Airport Fort Lauderdale Hollywood International Airport (KFLL)

Arrival

Time 2026-05-05 14:26
Airport Tampa International Airport (KTPA)
Time Latitude Longitude Altitude Speed Heading
2026-05-05 13:28 26.07433 -80.13943 17 ft 0 kts 191°
2026-05-05 13:38 26.07435 -80.13943 17 ft 1 kts 191°
2026-05-05 13:38 26.07449 -80.13939 17 ft 3 kts 191°
2026-05-05 13:38 26.07467 -80.13932 17 ft 3 kts 209°
2026-05-05 13:39 26.07483 -80.13918 17 ft 3 kts 228°
2026-05-05 13:39 26.07494 -80.13899 17 ft 3 kts 246°
2026-05-05 13:39 26.07500 -80.13878 17 ft 3 kts 261°
2026-05-05 13:39 26.07501 -80.13855 17 ft 3 kts 274°
2026-05-05 13:40 26.07499 -80.13841 17 ft 0 kts 280°
2026-05-05 13:41 26.07502 -80.13862 17 ft 9 kts 278°
2026-05-05 13:41 26.07514 -80.13921 17 ft 3 kts 313°
2026-05-05 13:41 26.07518 -80.13925 17 ft 0 kts 327°
2026-05-05 13:42 26.07520 -80.13926 17 ft 2 kts 333°
2026-05-05 13:42 26.07557 -80.13954 17 ft 12 kts 284°
2026-05-05 13:42 26.07561 -80.14075 17 ft 18 kts 270°
2026-05-05 13:43 26.07562 -80.14205 17 ft 14 kts 270°
2026-05-05 13:43 26.07562 -80.14302 17 ft 13 kts 270°
2026-05-05 13:43 26.07562 -80.14432 17 ft 21 kts 270°
2026-05-05 13:43 26.07563 -80.14589 17 ft 18 kts 270°
2026-05-05 13:44 26.07564 -80.14731 17 ft 21 kts 271°
2026-05-05 13:44 26.07565 -80.14901 17 ft 20 kts 271°
2026-05-05 13:44 26.07567 -80.15042 17 ft 17 kts 270°
2026-05-05 13:44 26.07567 -80.15149 17 ft 11 kts 270°
2026-05-05 13:45 26.07568 -80.15223 17 ft 14 kts 270°
2026-05-05 13:45 26.07569 -80.15361 17 ft 19 kts 270°
2026-05-05 13:45 26.07570 -80.15498 17 ft 18 kts 270°
2026-05-05 13:45 26.07571 -80.15672 17 ft 24 kts 270°
2026-05-05 13:46 26.07573 -80.15842 17 ft 19 kts 270°
2026-05-05 13:46 26.07574 -80.15977 17 ft 16 kts 270°
2026-05-05 13:46 26.07574 -80.16093 17 ft 16 kts 270°
2026-05-05 13:46 26.07575 -80.16242 17 ft 23 kts 270°
2026-05-05 13:47 26.07576 -80.16428 17 ft 22 kts 270°
2026-05-05 13:47 26.07576 -80.16569 17 ft 11 kts 270°
2026-05-05 13:47 26.07602 -80.16612 17 ft 5 kts 341°
2026-05-05 13:47 26.07622 -80.16615 17 ft 0 kts 356°
2026-05-05 13:48 26.07660 -80.16617 17 ft 7 kts 356°
2026-05-05 13:49 26.07694 -80.16586 17 ft 6 kts 90°
2026-05-05 13:49 26.07694 -80.16580 17 ft 4 kts 90°
2026-05-05 13:49 26.07694 -80.16499 17 ft 37 kts 90°
2026-05-05 13:49 26.07688 -80.15533 19 ft 145 kts 90°
2026-05-05 13:50 26.07664 -80.14295 556 ft 174 kts 91°
2026-05-05 13:50 26.07638 -80.12929 1613 ft 175 kts 89°
2026-05-05 13:50 26.07742 -80.11625 2753 ft 168 kts 78°
2026-05-05 13:50 26.08059 -80.10341 3475 ft 181 kts 72°
2026-05-05 13:51 26.08500 -80.08940 4037 ft 202 kts 70°
2026-05-05 13:51 26.09313 -80.07551 4382 ft 232 kts 43°
2026-05-05 13:51 26.10770 -80.06570 4820 ft 257 kts 25°
2026-05-05 13:51 26.12478 -80.05764 5498 ft 274 kts 22°
2026-05-05 13:52 26.14323 -80.05094 6332 ft 283 kts
2026-05-05 13:52 26.16290 -80.05087 7321 ft 283 kts 350°
2026-05-05 13:52 26.18203 -80.05627 8304 ft 285 kts 341°
2026-05-05 13:52 26.20096 -80.06334 9187 ft 289 kts 335°
2026-05-05 13:53 26.21746 -80.07557 10144 ft 284 kts 312°
2026-05-05 13:53 26.22850 -80.09360 11071 ft 283 kts 295°
2026-05-05 13:53 26.23763 -80.11338 11845 ft 293 kts 295°
2026-05-05 13:53 26.24074 -80.12023 12100 ft 295 kts 293°
2026-05-05 13:54 26.25134 -80.14885 12897 ft 310 kts 287°
2026-05-05 13:54 26.26197 -80.20495 14699 ft 320 kts 278°
2026-05-05 13:54 26.26528 -80.22955 15525 ft 323 kts 278°
2026-05-05 13:55 26.26864 -80.25439 16352 ft 325 kts 278°
2026-05-05 13:55 26.27205 -80.27930 17142 ft 327 kts 279°
2026-05-05 13:55 26.27550 -80.30437 17897 ft 329 kts 279°
2026-05-05 13:55 26.27900 -80.32970 18648 ft 332 kts 279°
2026-05-05 13:56 26.28254 -80.35519 19344 ft 335 kts 279°
2026-05-05 13:56 26.28612 -80.38094 20019 ft 338 kts 279°
2026-05-05 13:56 26.28975 -80.40692 20688 ft 340 kts 280°
2026-05-05 13:56 26.29339 -80.43301 21326 ft 343 kts 280°
2026-05-05 13:57 26.29708 -80.45937 21943 ft 346 kts 280°
2026-05-05 13:57 26.30079 -80.48596 22549 ft 348 kts 280°
2026-05-05 13:57 26.30449 -80.51240 23107 ft 351 kts 281°
2026-05-05 13:57 26.30827 -80.53931 23665 ft 353 kts 281°
2026-05-05 13:58 26.31220 -80.56666 23978 ft 362 kts 281°
2026-05-05 13:58 26.31630 -80.59480 24040 ft 374 kts 281°
2026-05-05 13:58 26.32046 -80.62382 24047 ft 385 kts 281°
2026-05-05 13:58 26.32468 -80.65364 24048 ft 394 kts 281°
2026-05-05 13:59 26.33332 -80.71540 24048 ft 411 kts 281°
2026-05-05 13:59 26.33772 -80.74711 24048 ft 417 kts 281°
2026-05-05 14:00 26.34668 -80.81193 24050 ft 428 kts 281°
2026-05-05 14:00 26.34821 -80.82303 24050 ft 429 kts 281°
2026-05-05 14:01 26.38053 -80.93597 24055 ft 430 kts 307°
2026-05-05 14:01 26.40007 -80.96123 24054 ft 430 kts 310°
2026-05-05 14:01 26.42021 -80.98602 24056 ft 431 kts 311°
2026-05-05 14:01 26.43438 -81.00210 24058 ft 431 kts 313°
2026-05-05 14:02 26.44873 -81.01746 24058 ft 432 kts 314°
2026-05-05 14:02 26.48511 -81.05562 24059 ft 432 kts 314°
2026-05-05 14:02 26.50699 -81.07861 24060 ft 432 kts 314°
2026-05-05 14:02 26.52901 -81.10131 24060 ft 432 kts 314°
2026-05-05 14:03 26.53644 -81.10913 24060 ft 431 kts 314°
2026-05-05 14:03 26.57254 -81.14754 24061 ft 431 kts 314°
2026-05-05 14:03 26.59430 -81.17058 24063 ft 431 kts 314°
2026-05-05 14:03 26.60899 -81.18612 24066 ft 431 kts 314°
2026-05-05 14:04 26.61609 -81.19361 24067 ft 431 kts 314°
2026-05-05 14:04 26.65701 -81.24225 24068 ft 429 kts 308°
2026-05-05 14:04 26.67589 -81.26812 24067 ft 429 kts 307°
2026-05-05 14:04 26.69441 -81.29435 24069 ft 429 kts 307°
2026-05-05 14:05 26.71292 -81.32053 24070 ft 429 kts 307°
2026-05-05 14:05 26.73141 -81.34658 24071 ft 428 kts 307°
2026-05-05 14:05 26.74999 -81.37268 24075 ft 428 kts 307°
2026-05-05 14:05 26.76857 -81.39873 24077 ft 428 kts 307°
2026-05-05 14:06 26.78711 -81.42471 24078 ft 428 kts 307°
2026-05-05 14:06 26.80569 -81.45071 24078 ft 428 kts 307°
2026-05-05 14:06 26.82427 -81.47670 24078 ft 428 kts 307°
2026-05-05 14:06 26.84289 -81.50274 24078 ft 428 kts 307°
2026-05-05 14:07 26.86149 -81.52865 24078 ft 425 kts 307°
2026-05-05 14:07 26.87996 -81.55435 24078 ft 422 kts 307°
2026-05-05 14:07 26.89840 -81.57990 24079 ft 422 kts 307°
2026-05-05 14:07 26.91684 -81.60557 24080 ft 422 kts 307°
2026-05-05 14:08 26.93503 -81.63097 23750 ft 412 kts 307°
2026-05-05 14:08 26.95274 -81.65575 23072 ft 405 kts 307°
2026-05-05 14:08 26.97026 -81.68030 22333 ft 401 kts 307°
2026-05-05 14:08 26.98179 -81.69648 21848 ft 399 kts 307°
2026-05-05 14:09 27.00481 -81.72881 20883 ft 394 kts 307°
2026-05-05 14:09 27.02185 -81.75275 20173 ft 391 kts 307°
2026-05-05 14:09 27.03873 -81.77649 19469 ft 388 kts 307°
2026-05-05 14:09 27.05549 -81.80005 18766 ft 385 kts 307°
2026-05-05 14:10 27.07251 -81.82302 18069 ft 383 kts 310°
2026-05-05 14:10 27.09143 -81.84401 17375 ft 382 kts 315°
2026-05-05 14:10 27.11190 -81.86297 16689 ft 381 kts 319°
2026-05-05 14:10 27.13297 -81.88101 16001 ft 380 kts 320°
2026-05-05 14:11 27.15381 -81.89851 15240 ft 380 kts 320°
2026-05-05 14:11 27.17525 -81.91655 14519 ft 379 kts 320°
2026-05-05 14:11 27.19600 -81.93408 13874 ft 376 kts 321°
2026-05-05 14:11 27.21689 -81.95173 13246 ft 374 kts 321°
2026-05-05 14:12 27.23736 -81.96906 13010 ft 361 kts 321°
2026-05-05 14:12 27.25703 -81.98573 12836 ft 348 kts 321°
2026-05-05 14:12 27.27608 -82.00192 12656 ft 337 kts 321°
2026-05-05 14:12 27.29450 -82.01758 12476 ft 327 kts 321°
2026-05-05 14:13 27.31242 -82.03278 12301 ft 318 kts 321°
2026-05-05 14:13 27.32983 -82.04759 12128 ft 309 kts 321°
2026-05-05 14:13 27.34678 -82.06198 11958 ft 302 kts 321°
2026-05-05 14:13 27.36330 -82.07605 11791 ft 295 kts 321°
2026-05-05 14:14 27.37397 -82.08534 11687 ft 290 kts 319°
2026-05-05 14:14 27.39447 -82.10436 11475 ft 281 kts 318°
2026-05-05 14:14 27.40933 -82.11826 11322 ft 275 kts 318°
2026-05-05 14:14 27.42405 -82.13200 11176 ft 277 kts 319°
2026-05-05 14:15 27.43897 -82.14596 11018 ft 282 kts 318°
2026-05-05 14:15 27.45376 -82.16079 10734 ft 287 kts 315°
2026-05-05 14:15 27.46834 -82.17653 10434 ft 292 kts 314°
2026-05-05 14:15 27.48291 -82.19263 10125 ft 295 kts 314°
2026-05-05 14:16 27.49753 -82.20877 9813 ft 294 kts 314°
2026-05-05 14:16 27.51209 -82.22483 9502 ft 293 kts 314°
2026-05-05 14:16 27.52661 -82.24081 9193 ft 291 kts 314°
2026-05-05 14:16 27.54107 -82.25673 8884 ft 290 kts 314°
2026-05-05 14:17 27.55541 -82.27250 8579 ft 288 kts 314°
2026-05-05 14:17 27.56975 -82.28828 8273 ft 288 kts 315°
2026-05-05 14:17 27.58407 -82.30402 7968 ft 287 kts 315°
2026-05-05 14:17 27.59831 -82.31968 7663 ft 286 kts 315°
2026-05-05 14:18 27.61257 -82.33536 7360 ft 285 kts 315°
2026-05-05 14:18 27.62673 -82.35092 7058 ft 283 kts 315°
2026-05-05 14:18 27.64082 -82.36642 6758 ft 283 kts 315°
2026-05-05 14:18 27.65484 -82.38183 6457 ft 282 kts 315°
2026-05-05 14:19 27.66886 -82.39723 6157 ft 280 kts 315°
2026-05-05 14:19 27.68212 -82.41313 5853 ft 277 kts 306°
2026-05-05 14:19 27.69110 -82.43231 5553 ft 278 kts 289°
2026-05-05 14:19 27.69531 -82.45351 5251 ft 277 kts 275°
2026-05-05 14:20 27.69594 -82.47525 4941 ft 277 kts 271°
2026-05-05 14:20 27.69941 -82.49641 4718 ft 275 kts 295°
2026-05-05 14:20 27.71072 -82.51357 4509 ft 274 kts 314°
2026-05-05 14:20 27.72413 -82.52862 4264 ft 267 kts 315°
2026-05-05 14:21 27.73789 -82.54195 3993 ft 256 kts 331°
2026-05-05 14:21 27.75447 -82.54734 3743 ft 244 kts 355°
2026-05-05 14:21 27.76553 -82.54814 3595 ft 238 kts 359°
2026-05-05 14:21 27.78697 -82.54836 3368 ft 223 kts
2026-05-05 14:22 27.80228 -82.54783 3123 ft 219 kts
2026-05-05 14:22 27.81745 -82.54730 2843 ft 217 kts
2026-05-05 14:22 27.83249 -82.54679 2556 ft 215 kts
2026-05-05 14:22 27.84722 -82.54629 2287 ft 207 kts
2026-05-05 14:23 27.86109 -82.54582 2009 ft 197 kts
2026-05-05 14:23 27.87015 -82.54551 1841 ft 188 kts
2026-05-05 14:23 27.88665 -82.54495 1513 ft 171 kts
2026-05-05 14:23 27.89832 -82.54456 1302 ft 160 kts
2026-05-05 14:24 27.90920 -82.54419 1090 ft 154 kts
2026-05-05 14:24 27.91965 -82.54383 888 ft 150 kts
2026-05-05 14:24 27.93004 -82.54349 685 ft 150 kts
2026-05-05 14:24 27.94052 -82.54304 479 ft 151 kts
2026-05-05 14:25 27.95107 -82.54268 282 ft 152 kts
2026-05-05 14:25 27.96157 -82.54238 111 ft 150 kts
2026-05-05 14:25 27.97184 -82.54203 35 ft 141 kts
2026-05-05 14:25 27.97869 -82.54177 34 ft 52 kts
2026-05-05 14:26 27.98150 -82.54174 34 ft 41 kts
2026-05-05 14:26 27.98333 -82.54166 34 ft 10 kts
2026-05-05 14:26 27.98361 -82.54147 34 ft 5 kts 62°
2026-05-05 14:26 27.98367 -82.54055 34 ft 22 kts 89°
2026-05-05 14:27 27.98433 -82.53905 34 ft 22 kts 35°
2026-05-05 14:27 27.98517 -82.53835 34 ft 12 kts 45°
2026-05-05 14:27 27.98538 -82.53714 34 ft 23 kts 92°
2026-05-05 14:27 27.98527 -82.53512 34 ft 26 kts 90°
2026-05-05 14:28 27.98537 -82.53333 34 ft 20 kts 90°
2026-05-05 14:28 27.98533 -82.53199 34 ft 14 kts 92°
2026-05-05 14:28 27.98509 -82.53141 34 ft 6 kts 192°
2026-05-05 14:28 27.98453 -82.53193 34 ft 13 kts 224°
2026-05-05 14:29 27.98418 -82.53265 34 ft 7 kts 227°
2026-05-05 14:29 27.98388 -82.53279 34 ft 9 kts 198°
2026-05-05 14:29 27.98300 -82.53308 34 ft 0 kts 195°